Location: CNYAC Observatory
(43.2150°N, 74.9500°W)
Time: 09:28:15
(UTC-05:00)

Daily predictions for brighter satellites

Satellite Brightness Start Highest point End
(mag) Time Altitude Azimuth Time Altitude Azimuth Time Altitude Azimuth
Cosmos 1048 Rocket 4.3 16:47:21 10° NNW 16:52:41 78° WSW 16:58:02 10° SSE
Okean 1 Rocket 3.6 16:50:02 10° NNW 16:54:19 63° W 16:58:36 10° S
SL-16 R/B 4.3 16:49:35 10° N 16:54:41 28° WNW 16:59:46 10° WSW
Cosmos 1484 Rocket 4.4 16:53:13 10° E 16:55:11 14° ENE 16:57:09 10° NNE
Cosmos 1633 3.3 16:53:38 10° NNW 16:57:11 56° W 17:00:41 10° S
Cosmos 1544 Rocket 4.1 16:54:47 10° N 16:58:58 38° ENE 17:03:07 10° SE
COSMO-SKYMED 1 4.3 16:58:20 10° NE 17:00:49 15° E 17:03:16 10° SE
Cosmos 1975 Rocket 3.0 16:59:25 10° S 17:03:42 76° E 17:08:02 10° NNE
Cosmos 2263 Rocket 3.8 17:01:29 10° WSW 17:06:23 30° NW 17:11:21 10° N
BREEZE-M DEB (TANK) 4.3 16:58:28 10° W 17:08:42 48° NNW 17:12:58 10° ENE
PAYLOAD A 3.9 17:06:36 10° SSE 17:11:24 90° ENE 17:16:25 10° NNW
GEOS 3 Rocket 4.3 17:14:50 10° ESE 17:19:19 32° NE 17:23:50 10° NNW
Cosmos 1536 Rocket 4.2 17:16:17 10° SSE 17:20:21 36° E 17:24:28 10° NNE
SJ-7 4.5 17:18:24 10° SSE 17:22:36 65° ENE 17:26:49 10° N
USA 234 3.4 17:16:45 10° NE 17:23:18 80° NW 17:29:50 10° WSW
Tiangong 1 3.4 17:22:33 10° S 17:23:52 12° SSE 17:25:11 10° ESE
SPOT 3 Rocket 3.5 17:20:17 10° SSE 17:25:28 84° ENE 17:30:41 10° NNW
Okean 1 3.9 17:23:45 10° SSE 17:27:28 36° E 17:31:12 10° NNE
Cosmos 1536 4.4 17:23:57 10° NNW 17:27:45 39° W 17:31:33 10° SSW
YAOGAN 1 2.5 17:24:09 10° SSE 17:28:29 80° ENE 17:32:49 10° N
Meteor 1-18 Rocket 4.3 17:23:01 10° S 17:28:31 57° E 17:34:09 10° NNE
Cosmos 1844 Rocket 2.8 17:25:53 10° SSW 17:31:28 77° WNW 17:37:08 10° NNE
Cosmos 1812 2.8 17:28:00 10° S 17:31:47 56° E 17:35:35 10° NNE
BREEZE M DEB (TANK) 4.0 17:23:39 10° SSW 17:32:58 36° SSE 17:35:33 17° E
CZ-4 R/B 4.4 17:28:59 10° SSE 17:33:04 67° ENE 17:37:14 10° N
COSMOS 2487 3.5 17:32:53 10° N 17:35:58 26° ENE 17:38:37 12° ESE
EP 2 4.5 17:34:54 10° SSW 17:37:25 49° ESE 17:38:30 28° ENE
AQUARIUS 4.4 17:33:13 10° S 17:37:42 76° WSW 17:42:13 10° NNW
Cosmos 921 Rocket 4.5 17:34:58 10° SE 17:37:43 17° E 17:37:43 17° E
Meteor 2-19 Rocket 4.5 17:31:41 10° N 17:37:46 85° W 17:43:48 10° S
USA 32 4.1 17:33:11 10° S 17:38:25 84° W 17:43:40 10° N
NOSS 3-3 (A) 4.2 17:32:45 10° SSW 17:38:44 54° ESE 17:44:01 15° NE
NOSS 3-3 (C) 4.2 17:32:52 10° SSW 17:38:51 54° ESE 17:44:05 16° NE
SL-8 Rocket 4.2 17:33:09 10° N 17:39:18 75° W 17:45:26 10° S
ISS -2.5 17:37:14 10° W 17:40:23 42° NNW 17:42:12 21° NE
Cosmos 1346 Rocket 3.4 17:39:54 10° SSE 17:43:27 34° E 17:45:20 21° NE
IDEFIX/ARIANE 42P 2.9 17:40:52 10° S 17:46:02 68° WSW 17:51:14 10° NNW
ASTRO F (AKARI) 4.1 17:43:38 14° NNE 17:46:17 74° ESE 17:49:24 10° S
CORIOLIS 4.4 17:41:03 10° S 17:46:28 76° WSW 17:51:53 10° NNW
ATLAS 2AS CENTAUR R/B 3.2 17:38:29 10° NW 17:46:35 79° WSW 17:54:08 10° SSE
Cosmos 494 Rocket 4.0 17:41:25 10° NNW 17:46:42 88° WSW 17:51:57 10° SSE
Cosmos 1844 3.8 17:42:40 10° SSW 17:48:13 76° WNW 17:53:48 10° NNE
Cosmos 1455 Rocket 3.1 17:44:03 10° N 17:48:29 82° W 17:52:54 10° S
SKYMED 2 3.8 17:45:30 13° NNE 17:49:15 46° E 17:53:25 10° S
Cosmos 2297 4.3 17:45:35 10° SSE 17:50:34 34° ESE 17:53:06 23° ENE
Cosmos 2366 rocket 4.1 17:44:11 10° N 17:50:34 84° W 17:56:52 10° S
Okean 1-7 Rocket 4.4 17:49:47 10° SSE 17:53:44 30° E 17:54:42 28° ENE
Cosmos 2218 Rocket 4.4 17:48:56 10° NNW 17:55:11 68° W 18:01:20 10° S
CZ-3B DEB 2.3 17:51:38 10° SW 17:55:28 84° NW 18:02:17 19° NE
MSX 3.9 17:52:58 10° S 17:58:44 80° WSW 18:04:31 10° NNW
Thor Agena Rocket 4.3 17:56:12 10° N 18:01:15 54° WNW 18:06:20 10° SW
Cosmos 1809 Rocket 4.4 17:55:52 10° N 18:02:02 70° E 18:08:07 10° SSE
CZ-4 R/B 3.6 17:59:28 10° SSW 18:03:07 29° W 18:06:44 10° NW
Abrixas 3.2 18:01:01 10° WNW 18:03:36 37° N 18:03:36 37° N
SMAP 4.4 17:59:35 10° S 18:03:58 41° W 18:08:23 10° NNW
SL-24 DEB 4.2 17:59:21 10° N 18:04:07 88° W 18:08:49 10° S
Cosmos 2278 Rocket 2.1 17:59:03 10° SSW 18:04:42 90° NNW 18:09:21 16° NNE
Cosmos 1238 Rocket 3.8 18:05:12 10° SW 18:07:55 34° WNW 18:10:44 10° N
Timation 2 Rocket 4.1 18:02:57 10° NNW 18:09:43 63° ENE 18:16:32 10° SE
BREEZE-M R/B 4.1 17:59:08 10° SW 18:09:48 84° SSE 18:12:19 34° ENE
CZ-2C R/B 4.0 18:05:40 10° SSW 18:10:16 38° W 18:15:03 10° NNW
Cosmos 1975 3.1 18:06:47 10° NNW 18:10:50 68° W 18:14:50 10° S
Meteor 1-19 Rocket 4.4 18:09:20 10° SSE 18:14:53 50° E 18:18:27 22° NNE
Genesis I 3.1 18:17:58 10° NW 18:21:55 84° SW 18:23:19 38° SSE
Cosmos 1821 Rocket 3.9 18:19:24 10° N 18:25:26 58° E 18:31:25 10° SSE
NOAA 12 4.0 18:20:43 10° SSE 18:25:57 69° ENE 18:31:12 10° N
Cosmos 2082 Rocket 2.1 18:23:32 10° NNW 18:29:12 72° ENE 18:33:41 17° SSE
Cosmos 1484 Rocket 3.8 18:25:42 10° S 18:29:18 44° W 18:32:53 10° NNW
DMSP B5D1-3 4.4 18:25:25 18° NNE 18:29:22 88° ESE 18:34:30 10° SSW
TIMED 4.3 18:25:24 10° SSW 18:29:45 72° ESE 18:29:59 70° ENE
SL-8 R/B 3.6 18:25:13 10° WSW 18:30:00 82° NNW 18:30:50 60° NE
Cosmos 1833 Rocket 2.6 18:25:13 10° NNW 18:30:51 64° ENE 18:33:05 36° SE
Meteor 1-13 Rocket 4.1 18:26:31 10° S 18:32:11 85° E 18:37:11 14° N
METEOR-M 4.0 18:28:47 10° SSE 18:34:05 70° ENE 18:39:24 10° N
NOSS 2-1 (D) 4.4 18:31:10 10° SSW 18:33:30 32° S 18:33:30 32° S
NOSS 2-1 (C) 4.5 18:31:52 10° SSW 18:34:09 31° S 18:34:09 31° S
COSMO-SKYMED 1 3.3 18:34:05 17° N 18:37:17 52° WNW 18:41:30 10° SSW
Meteor 1-23 Rocket 4.4 18:38:41 10° S 18:43:21 50° SE 18:43:21 50° SE
Meteor 1-28 Rocket 3.7 18:45:29 58° WSW 18:45:29 58° WSW 18:48:45 10° SSW
Nadezhda 3 Rocket 4.3 18:43:08 10° SSW 18:49:16 65° W 18:55:31 10° N
Timation 1 Rocket 4.2 18:48:28 10° SSW 18:54:25 88° ESE 18:55:27 63° NNE
GEOS 3 Rocket 4.2 18:53:31 18° SSE 18:57:11 52° WSW 19:02:11 10° NW
Meteor 2-4 Rocket 3.6 18:53:42 10° S 18:58:30 71° S 18:58:30 71° S
Tiangong 1 4.1 18:56:41 10° WSW 18:57:11 14° SW 18:57:11 14° SW
USA 234 4.3 19:03:52 29° NNE 19:05:47 35° NNW 19:11:33 10° W
ATLAS 3B CENTAUR R/B 4.2 18:59:50 10° WSW 19:12:58 31° SSW 19:15:58 24° SSE
Cosmos 921 Rocket 4.5 19:11:38 10° SW 19:14:35 34° WSW 19:14:35 34° WSW
BREEZE M DEB (TANK) 3.8 19:16:51 10° WNW 19:21:15 87° NNE 19:21:54 76° ESE
NOSS 3-4 (A) 3.7 19:15:19 10° NW 19:21:59 79° N 19:21:59 79° N
NOSS 3-4 (C) 3.7 19:15:25 10° NW 19:22:03 78° N 19:22:03 78° N
Cosmos 2278 Rocket 4.5 19:46:02 10° W 19:49:36 17° NW 19:51:14 15° NNW
CZ-3B DEB 4.3 20:25:39 10° WNW 20:30:54 42° NNW 20:30:54 42° NNW
